Year,Month,Day,Hour,Minute,Value (Times are PST for barometer in hPa)
2012,01,22,00,00,1007.65
2012,01,22,00,01,1007.65
2012,01,22,00,02,1007.62
2012,01,22,00,03,1007.69
2012,01,22,00,04,1007.62
2012,01,22,00,05,1007.65
2012,01,22,00,06,1007.62
2012,01,22,00,07,1007.62
2012,01,22,00,08,1007.59
2012,01,22,00,09,1007.59
2012,01,22,00,10,1007.55
2012,01,22,00,11,1007.55
2012,01,22,00,12,1007.55
2012,01,22,00,13,1007.55
2012,01,22,00,14,1007.52
2012,01,22,00,15,1007.55
2012,01,22,00,16,1007.58
2012,01,22,00,17,1007.52
2012,01,22,00,18,1007.59
2012,01,22,00,19,1007.62
2012,01,22,00,20,1007.59
2012,01,22,00,21,1007.55
2012,01,22,00,22,1007.59
2012,01,22,00,23,1007.55
2012,01,22,00,24,1007.55
2012,01,22,00,25,1007.59
2012,01,22,00,26,1007.59
2012,01,22,00,27,1007.59
2012,01,22,00,28,1007.55
2012,01,22,00,29,1007.59
2012,01,22,00,30,1007.59
2012,01,22,00,31,1007.55
2012,01,22,00,32,1007.52
2012,01,22,00,33,1007.52
2012,01,22,00,34,1007.51
2012,01,22,00,35,1007.45
2012,01,22,00,36,1007.42
2012,01,22,00,37,1007.41
2012,01,22,00,38,1007.35
2012,01,22,00,39,1007.45
2012,01,22,00,40,1007.43
2012,01,22,00,41,1007.48
2012,01,22,00,42,1007.48
2012,01,22,00,43,1007.45
2012,01,22,00,44,1007.45
2012,01,22,00,45,1007.47
2012,01,22,00,46,1007.42
2012,01,22,00,47,1007.42
2012,01,22,00,48,1007.45
2012,01,22,00,49,1007.45
2012,01,22,00,50,1007.45
2012,01,22,00,51,1007.42
2012,01,22,00,52,1007.45
2012,01,22,00,53,1007.42
2012,01,22,00,54,1007.45
2012,01,22,00,55,1007.48
2012,01,22,00,56,1007.45
2012,01,22,00,57,1007.45
2012,01,22,00,58,1007.42
2012,01,22,00,59,1007.42
2012,01,22,01,00,1007.45
2012,01,22,01,01,1007.38
2012,01,22,01,02,1007.42
2012,01,22,01,03,1007.45
2012,01,22,01,04,1007.47
2012,01,22,01,05,1007.42
2012,01,22,01,06,1007.38
2012,01,22,01,07,1007.38
2012,01,22,01,08,1007.35
2012,01,22,01,09,1007.35
2012,01,22,01,10,1007.35
2012,01,22,01,11,1007.32
2012,01,22,01,12,1007.32
2012,01,22,01,13,1007.28
2012,01,22,01,14,1007.25
2012,01,22,01,15,1007.21
2012,01,22,01,16,1007.18
2012,01,22,01,17,1007.18
2012,01,22,01,18,1007.15
2012,01,22,01,19,1007.11
2012,01,22,01,20,1007.11
2012,01,22,01,21,1007.08
2012,01,22,01,22,1007.10
2012,01,22,01,23,1007.01
2012,01,22,01,24,1007.01
2012,01,22,01,25,1006.98
2012,01,22,01,26,1006.91
2012,01,22,01,27,1006.87
2012,01,22,01,28,1006.77
2012,01,22,01,29,1006.71
2012,01,22,01,30,1006.67
2012,01,22,01,31,1006.64
2012,01,22,01,32,1006.60
2012,01,22,01,33,1006.57
2012,01,22,01,34,1006.54
2012,01,22,01,35,1006.54
2012,01,22,01,36,1006.50
2012,01,22,01,37,1006.54
2012,01,22,01,38,1006.54
2012,01,22,01,39,1006.50
2012,01,22,01,40,1006.50
2012,01,22,01,41,1006.54
2012,01,22,01,42,1006.50
2012,01,22,01,43,1006.44
2012,01,22,01,44,1006.44
2012,01,22,01,45,1006.40
2012,01,22,01,46,1006.30
2012,01,22,01,47,1006.27
2012,01,22,01,48,1006.23
2012,01,22,01,49,1006.20
2012,01,22,01,50,1006.13
2012,01,22,01,51,1006.13
2012,01,22,01,52,1006.10
2012,01,22,01,53,1006.13
2012,01,22,01,54,1006.13
2012,01,22,01,55,1006.10
2012,01,22,01,56,1006.06
2012,01,22,01,57,1006.10
2012,01,22,01,58,1006.10
2012,01,22,01,59,1006.06
2012,01,22,02,00,1006.03
2012,01,22,02,01,1006.06
2012,01,22,02,02,1006.03
2012,01,22,02,03,1005.99
2012,01,22,02,04,1005.96
2012,01,22,02,05,1005.93
2012,01,22,02,06,1005.89
2012,01,22,02,07,1005.83
2012,01,22,02,08,1005.85
2012,01,22,02,09,1005.76
2012,01,22,02,10,1005.79
2012,01,22,02,11,1005.83
2012,01,22,02,12,1005.79
2012,01,22,02,13,1005.76
2012,01,22,02,14,1005.69
2012,01,22,02,15,1005.62
2012,01,22,02,16,1005.59
2012,01,22,02,17,1005.55
2012,01,22,02,18,1005.55
2012,01,22,02,19,1005.55
2012,01,22,02,20,1005.55
2012,01,22,02,21,1005.52
2012,01,22,02,22,1005.49
2012,01,22,02,23,1005.49
2012,01,22,02,24,1005.52
2012,01,22,02,25,1005.52
2012,01,22,02,26,1005.52
2012,01,22,02,27,1005.52
2012,01,22,02,28,1005.49
2012,01,22,02,29,1005.45
2012,01,22,02,30,1005.45
2012,01,22,02,31,1005.45
2012,01,22,02,32,1005.42
2012,01,22,02,33,1005.45
2012,01,22,02,34,1005.35
2012,01,22,02,35,1005.39
2012,01,22,02,36,1005.39
2012,01,22,02,37,1005.39
2012,01,22,02,38,1005.39
2012,01,22,02,39,1005.35
2012,01,22,02,40,1005.42
2012,01,22,02,41,1005.35
2012,01,22,02,42,1005.42
2012,01,22,02,43,1005.49
2012,01,22,02,44,1005.49
2012,01,22,02,45,1005.45
2012,01,22,02,46,1005.45
2012,01,22,02,47,1005.42
2012,01,22,02,48,1005.35
2012,01,22,02,49,1005.32
2012,01,22,02,50,1005.32
2012,01,22,02,51,1005.35
2012,01,22,02,52,1005.39
2012,01,22,02,53,1005.45
2012,01,22,02,54,1005.39
2012,01,22,02,55,1005.42
2012,01,22,02,56,1005.39
2012,01,22,02,57,1005.42
2012,01,22,02,58,1005.42
2012,01,22,02,59,1005.45
2012,01,22,03,00,1005.39
2012,01,22,03,01,1005.39
2012,01,22,03,02,1005.35
2012,01,22,03,03,1005.35
2012,01,22,03,04,1005.42
2012,01,22,03,05,1005.39
2012,01,22,03,06,1005.39
2012,01,22,03,07,1005.35
2012,01,22,03,08,1005.35
2012,01,22,03,09,1005.28
2012,01,22,03,10,1005.32
2012,01,22,03,11,1005.22
2012,01,22,03,12,1005.28
2012,01,22,03,13,1005.25
2012,01,22,03,14,1005.22
2012,01,22,03,15,1005.18
2012,01,22,03,16,1005.15
2012,01,22,03,17,1005.10
2012,01,22,03,18,1005.01
2012,01,22,03,19,1005.05
2012,01,22,03,20,1005.04
2012,01,22,03,21,1004.91
2012,01,22,03,22,1004.91
2012,01,22,03,23,1004.91
2012,01,22,03,24,1004.88
2012,01,22,03,25,1004.88
2012,01,22,03,26,1004.91
2012,01,22,03,27,1004.88
2012,01,22,03,28,1004.84
2012,01,22,03,29,1004.84
2012,01,22,03,30,1004.78
2012,01,22,03,31,1004.74
2012,01,22,03,32,1004.74
2012,01,22,03,33,1004.67
2012,01,22,03,34,1004.64
2012,01,22,03,35,1004.64
2012,01,22,03,36,1004.61
2012,01,22,03,37,1004.61
2012,01,22,03,38,1004.64
2012,01,22,03,39,1004.57
2012,01,22,03,40,1004.54
2012,01,22,03,41,1004.47
2012,01,22,03,42,1004.44
2012,01,22,03,43,1004.40
2012,01,22,03,44,1004.44
2012,01,22,03,45,1004.44
2012,01,22,03,46,1004.37
2012,01,22,03,47,1004.36
2012,01,22,03,48,1004.27
2012,01,22,03,49,1004.21
2012,01,22,03,50,1004.30
2012,01,22,03,51,1004.37
2012,01,22,03,52,1004.30
2012,01,22,03,53,1004.34
2012,01,22,03,54,1004.37
2012,01,22,03,55,1004.33
2012,01,22,03,56,1004.22
2012,01,22,03,57,1004.10
2012,01,22,03,58,1004.13
2012,01,22,03,59,1004.06
2012,01,22,04,00,1004.00
2012,01,22,04,01,1003.93
2012,01,22,04,02,1003.93
2012,01,22,04,03,1003.90
2012,01,22,04,04,1003.93
2012,01,22,04,05,1003.90
2012,01,22,04,06,1003.90
2012,01,22,04,07,1003.83
2012,01,22,04,08,1003.86
2012,01,22,04,09,1003.86
2012,01,22,04,10,1003.79
2012,01,22,04,11,1003.79
2012,01,22,04,12,1003.78
2012,01,22,04,13,1003.66
2012,01,22,04,14,1003.66
2012,01,22,04,15,1003.69
2012,01,22,04,16,1003.66
2012,01,22,04,17,1003.66
2012,01,22,04,18,1003.66
2012,01,22,04,19,1003.62
2012,01,22,04,20,1003.59
2012,01,22,04,21,1003.66
2012,01,22,04,22,1003.66
2012,01,22,04,23,1003.66
2012,01,22,04,24,1003.69
2012,01,22,04,25,1003.66
2012,01,22,04,26,1003.62
2012,01,22,04,27,1003.62
2012,01,22,04,28,1003.59
2012,01,22,04,29,1003.58
2012,01,22,04,30,1003.42
2012,01,22,04,31,1003.49
2012,01,22,04,32,1003.46
2012,01,22,04,33,1003.46
2012,01,22,04,34,1003.39
2012,01,22,04,35,1003.38
2012,01,22,04,36,1003.25
2012,01,22,04,37,1003.32
2012,01,22,04,38,1003.32
2012,01,22,04,39,1003.29
2012,01,22,04,40,1003.28
2012,01,22,04,41,1003.18
2012,01,22,04,42,1003.25
2012,01,22,04,43,1003.18
2012,01,22,04,44,1003.15
2012,01,22,04,45,1003.15
2012,01,22,04,46,1003.08
2012,01,22,04,47,1003.08
2012,01,22,04,48,1002.98
2012,01,22,04,49,1003.01
2012,01,22,04,50,1002.98
2012,01,22,04,51,1002.91
2012,01,22,04,52,1002.88
2012,01,22,04,53,1002.85
2012,01,22,04,54,1002.84
2012,01,22,04,55,1002.74
2012,01,22,04,56,1002.74
2012,01,22,04,57,1002.74
2012,01,22,04,58,1002.71
2012,01,22,04,59,1002.71
2012,01,22,05,00,1002.74
2012,01,22,05,01,1002.68
2012,01,22,05,02,1002.71
2012,01,22,05,03,1002.71
2012,01,22,05,04,1002.74
2012,01,22,05,05,1002.74
2012,01,22,05,06,1002.74
2012,01,22,05,07,1002.74
2012,01,22,05,08,1002.71
2012,01,22,05,09,1002.74
2012,01,22,05,10,1002.71
2012,01,22,05,11,1002.74
2012,01,22,05,12,1002.71
2012,01,22,05,13,1002.68
2012,01,22,05,14,1002.61
2012,01,22,05,15,1002.64
2012,01,22,05,16,1002.61
2012,01,22,05,17,1002.54
2012,01,22,05,18,1002.54
2012,01,22,05,19,1002.51
2012,01,22,05,20,1002.51
2012,01,22,05,21,1002.47
2012,01,22,05,22,1002.51
2012,01,22,05,23,1002.47
2012,01,22,05,24,1002.51
2012,01,22,05,25,1002.47
2012,01,22,05,26,1002.51
2012,01,22,05,27,1002.47
2012,01,22,05,28,1002.51
2012,01,22,05,29,1002.47
2012,01,22,05,30,1002.47
2012,01,22,05,31,1002.41
2012,01,22,05,32,1002.41
2012,01,22,05,33,1002.47
2012,01,22,05,34,1002.41
2012,01,22,05,35,1002.41
2012,01,22,05,36,1002.44
2012,01,22,05,37,1002.44
2012,01,22,05,38,1002.37
2012,01,22,05,39,1002.41
2012,01,22,05,40,1002.34
2012,01,22,05,41,1002.27
2012,01,22,05,42,1002.27
2012,01,22,05,43,1002.17
2012,01,22,05,44,1002.24
2012,01,22,05,45,1002.17
2012,01,22,05,46,1001.98
2012,01,22,05,47,1002.10
2012,01,22,05,48,1002.07
2012,01,22,05,49,1002.00
2012,01,22,05,50,1001.93
2012,01,22,05,51,1001.97
2012,01,22,05,52,1001.92
2012,01,22,05,53,1001.83
2012,01,22,05,54,1001.86
2012,01,22,05,55,1001.86
2012,01,22,05,56,1001.80
2012,01,22,05,57,1001.73
2012,01,22,05,58,1001.73
2012,01,22,05,59,1001.68
2012,01,22,06,00,1001.59
2012,01,22,06,01,1001.62
2012,01,22,06,02,1001.52
2012,01,22,06,03,1001.56
2012,01,22,06,04,1001.50
2012,01,22,06,05,1001.62
2012,01,22,06,06,1001.46
2012,01,22,06,07,1001.39
2012,01,22,06,08,1001.32
2012,01,22,06,09,1001.29
2012,01,22,06,10,1001.32
2012,01,22,06,11,1001.22
2012,01,22,06,12,1001.19
2012,01,22,06,13,1001.12
2012,01,22,06,14,1001.12
2012,01,22,06,15,1001.12
2012,01,22,06,16,1001.05
2012,01,22,06,17,1001.07
2012,01,22,06,18,1000.88
2012,01,22,06,19,1000.88
2012,01,22,06,20,1000.85
2012,01,22,06,21,1000.81
2012,01,22,06,22,1000.85
2012,01,22,06,23,1000.85
2012,01,22,06,24,1000.85
2012,01,22,06,25,1000.75
2012,01,22,06,26,1000.61
2012,01,22,06,27,1000.54
2012,01,22,06,28,1000.44
2012,01,22,06,29,1000.44
2012,01,22,06,30,1000.44
2012,01,22,06,31,1000.44
2012,01,22,06,32,1000.48
2012,01,22,06,33,1000.37
2012,01,22,06,34,1000.27
2012,01,22,06,35,1000.27
2012,01,22,06,36,1000.24
2012,01,22,06,37,1000.20
2012,01,22,06,38,1000.20
2012,01,22,06,39,1000.16
2012,01,22,06,40,1000.03
2012,01,22,06,41,1000.03
2012,01,22,06,42,1000.07
2012,01,22,06,43,1000.00
2012,01,22,06,44,1000.00
2012,01,22,06,45,999.93
2012,01,22,06,46,999.87
2012,01,22,06,47,999.80
2012,01,22,06,48,999.80
2012,01,22,06,49,999.80
2012,01,22,06,50,999.89
2012,01,22,06,51,999.76
2012,01,22,06,52,999.73
2012,01,22,06,53,999.66
2012,01,22,06,54,999.60
2012,01,22,06,55,999.73
2012,01,22,06,56,999.70
2012,01,22,06,57,999.63
2012,01,22,06,58,999.59
2012,01,22,06,59,999.56
2012,01,22,07,00,999.56
2012,01,22,07,01,999.49
2012,01,22,07,02,999.47
2012,01,22,07,03,999.56
2012,01,22,07,04,999.53
2012,01,22,07,05,999.56
2012,01,22,07,06,999.53
2012,01,22,07,07,999.46
2012,01,22,07,08,999.46
2012,01,22,07,09,999.36
2012,01,22,07,10,999.39
2012,01,22,07,11,999.32
2012,01,22,07,12,999.22
2012,01,22,07,13,999.12
2012,01,22,07,14,999.12
2012,01,22,07,15,999.19
2012,01,22,07,16,999.22
2012,01,22,07,17,999.12
2012,01,22,07,18,999.12
2012,01,22,07,19,999.15
2012,01,22,07,20,999.09
2012,01,22,07,21,999.09
2012,01,22,07,22,999.12
2012,01,22,07,23,999.10
2012,01,22,07,24,999.21
2012,01,22,07,25,999.09
2012,01,22,07,26,999.02
2012,01,22,07,27,999.12
2012,01,22,07,28,999.09
2012,01,22,07,29,999.09
2012,01,22,07,30,998.99
2012,01,22,07,31,999.05
2012,01,22,07,32,998.99
2012,01,22,07,33,998.88
2012,01,22,07,34,998.88
2012,01,22,07,35,998.82
2012,01,22,07,36,998.78
2012,01,22,07,37,998.71
2012,01,22,07,38,998.67
2012,01,22,07,39,998.58
2012,01,22,07,40,998.68
2012,01,22,07,41,998.58
2012,01,22,07,42,998.64
2012,01,22,07,43,998.55
2012,01,22,07,44,998.67
2012,01,22,07,45,998.58
2012,01,22,07,46,998.61
2012,01,22,07,47,998.48
2012,01,22,07,48,998.48
2012,01,22,07,49,998.53
2012,01,22,07,50,998.41
2012,01,22,07,51,998.38
2012,01,22,07,52,998.50
2012,01,22,07,53,998.34
2012,01,22,07,54,998.31
2012,01,22,07,55,998.35
2012,01,22,07,56,998.48
2012,01,22,07,57,998.38
2012,01,22,07,58,998.21
2012,01,22,07,59,998.24
2012,01,22,08,00,998.24
2012,01,22,08,01,998.21
2012,01,22,08,02,998.24
2012,01,22,08,03,998.04
2012,01,22,08,04,998.04
2012,01,22,08,05,998.04
2012,01,22,08,06,997.94
2012,01,22,08,07,997.96
2012,01,22,08,08,997.83
2012,01,22,08,09,997.83
2012,01,22,08,10,997.73
2012,01,22,08,11,997.76
2012,01,22,08,12,997.61
2012,01,22,08,13,997.73
2012,01,22,08,14,997.78
2012,01,22,08,15,997.97
2012,01,22,08,16,997.63
2012,01,22,08,17,997.60
2012,01,22,08,18,997.63
2012,01,22,08,19,997.63
2012,01,22,08,20,997.63
2012,01,22,08,21,997.63
2012,01,22,08,22,997.70
2012,01,22,08,23,997.63
2012,01,22,08,24,997.63
2012,01,22,08,25,997.63
2012,01,22,08,26,997.63
2012,01,22,08,27,997.69
2012,01,22,08,28,997.53
2012,01,22,08,29,997.39
2012,01,22,08,30,997.46
2012,01,22,08,31,997.43
2012,01,22,08,32,997.36
2012,01,22,08,33,997.46
2012,01,22,08,34,997.43
2012,01,22,08,35,997.35
2012,01,22,08,36,997.09
2012,01,22,08,37,997.26
2012,01,22,08,38,997.16
2012,01,22,08,39,997.09
2012,01,22,08,40,997.19
2012,01,22,08,41,997.12
2012,01,22,08,42,997.09
2012,01,22,08,43,997.09
2012,01,22,08,44,997.19
2012,01,22,08,45,997.11
2012,01,22,08,46,997.02
2012,01,22,08,47,997.18
2012,01,22,08,48,997.05
2012,01,22,08,49,997.00
2012,01,22,08,50,997.10
2012,01,22,08,51,996.72
2012,01,22,08,52,997.02
2012,01,22,08,53,996.95
2012,01,22,08,54,997.02
2012,01,22,08,55,996.75
2012,01,22,08,56,996.85
2012,01,22,08,57,996.85
2012,01,22,08,58,996.73
2012,01,22,08,59,996.89
2012,01,22,09,00,996.85
2012,01,22,09,01,996.51
2012,01,22,09,02,996.61
2012,01,22,09,03,996.41
2012,01,22,09,04,996.34
2012,01,22,09,05,996.45
2012,01,22,09,06,996.34
2012,01,22,09,07,996.31
2012,01,22,09,08,996.31
2012,01,22,09,09,996.31
2012,01,22,09,10,996.31
2012,01,22,09,11,996.38
2012,01,22,09,12,996.34
2012,01,22,09,13,996.57
2012,01,22,09,14,996.41
2012,01,22,09,15,996.41
2012,01,22,09,16,996.34
2012,01,22,09,17,996.34
2012,01,22,09,18,996.24
2012,01,22,09,19,996.21
2012,01,22,09,20,996.34
2012,01,22,09,21,996.11
2012,01,22,09,22,995.97
2012,01,22,09,23,996.40
2012,01,22,09,24,996.21
2012,01,22,09,25,996.28
2012,01,22,09,26,996.17
2012,01,22,09,27,996.24
2012,01,22,09,28,996.11
2012,01,22,09,29,996.28
2012,01,22,09,30,995.98
2012,01,22,09,31,996.21
2012,01,22,09,32,996.17
2012,01,22,09,33,995.91
2012,01,22,09,34,996.07
2012,01,22,09,35,996.07
2012,01,22,09,36,996.11
2012,01,22,09,37,996.04
2012,01,22,09,38,995.87
2012,01,22,09,39,996.06
2012,01,22,09,40,995.84
2012,01,22,09,41,995.84
2012,01,22,09,42,995.60
2012,01,22,09,43,995.63
2012,01,22,09,44,995.56
2012,01,22,09,45,995.53
2012,01,22,09,46,995.56
2012,01,22,09,47,995.51
2012,01,22,09,48,995.60
2012,01,22,09,49,995.53
2012,01,22,09,50,995.50
2012,01,22,09,51,995.36
2012,01,22,09,52,995.37
2012,01,22,09,53,995.56
2012,01,22,09,54,995.33
2012,01,22,09,55,995.33
2012,01,22,09,56,995.27
2012,01,22,09,57,994.96
2012,01,22,09,58,995.02
2012,01,22,09,59,994.90
2012,01,22,10,00,995.16
2012,01,22,10,01,995.23
2012,01,22,10,02,995.09
2012,01,22,10,03,994.99
2012,01,22,10,04,994.99
2012,01,22,10,05,995.05
2012,01,22,10,06,994.92
2012,01,22,10,07,994.96
2012,01,22,10,08,994.80
2012,01,22,10,09,994.95
2012,01,22,10,10,994.68
2012,01,22,10,11,994.79
2012,01,22,10,12,994.75
2012,01,22,10,13,994.65
2012,01,22,10,14,994.72
2012,01,22,10,15,994.58
2012,01,22,10,16,994.65
2012,01,22,10,17,994.68
2012,01,22,10,18,994.68
2012,01,22,10,19,994.58
2012,01,22,10,20,994.55
2012,01,22,10,21,994.35
2012,01,22,10,22,994.44
2012,01,22,10,23,994.28
2012,01,22,10,24,994.31
2012,01,22,10,25,994.24
2012,01,22,10,26,994.35
2012,01,22,10,27,994.28
2012,01,22,10,28,994.24
2012,01,22,10,29,994.07
2012,01,22,10,30,994.38
2012,01,22,10,31,994.22
2012,01,22,10,32,994.31
2012,01,22,10,33,994.14
2012,01,22,10,34,994.04
2012,01,22,10,35,994.23
2012,01,22,10,36,994.04
2012,01,22,10,37,994.00
2012,01,22,10,38,993.84
2012,01,22,10,39,993.74
2012,01,22,10,40,993.74
2012,01,22,10,41,993.77
2012,01,22,10,42,993.77
2012,01,22,10,43,993.74
2012,01,22,10,44,993.80
2012,01,22,10,45,993.70
2012,01,22,10,46,993.80
2012,01,22,10,47,993.70
2012,01,22,10,48,993.74
2012,01,22,10,49,993.77
2012,01,22,10,50,993.91
2012,01,22,10,51,993.77
2012,01,22,10,52,993.67
2012,01,22,10,53,993.67
2012,01,22,10,54,993.50
2012,01,22,10,55,993.47
2012,01,22,10,56,993.39
2012,01,22,10,57,993.19
2012,01,22,10,58,993.43
2012,01,22,10,59,993.63
2012,01,22,11,00,993.33
2012,01,22,11,01,993.67
2012,01,22,11,02,993.63
2012,01,22,11,03,993.60
2012,01,22,11,04,993.57
2012,01,22,11,05,993.57
2012,01,22,11,06,993.47
2012,01,22,11,07,993.43
2012,01,22,11,08,993.36
2012,01,22,11,09,993.30
2012,01,22,11,10,993.26
2012,01,22,11,11,993.30
2012,01,22,11,12,993.36
2012,01,22,11,13,993.30
2012,01,22,11,14,993.17
2012,01,22,11,15,993.43
2012,01,22,11,16,993.43
2012,01,22,11,17,993.36
2012,01,22,11,18,993.40
2012,01,22,11,19,993.36
2012,01,22,11,20,993.30
2012,01,22,11,21,993.33
2012,01,22,11,22,993.26
2012,01,22,11,23,993.36
2012,01,22,11,24,993.43
2012,01,22,11,25,993.36
2012,01,22,11,26,993.30
2012,01,22,11,27,993.33
2012,01,22,11,28,993.40
2012,01,22,11,29,993.40
2012,01,22,11,30,993.40
2012,01,22,11,31,993.36
2012,01,22,11,32,993.13
2012,01,22,11,33,993.19
2012,01,22,11,34,993.16
2012,01,22,11,35,993.09
2012,01,22,11,36,993.09
2012,01,22,11,37,993.06
2012,01,22,11,38,993.03
2012,01,22,11,39,993.06
2012,01,22,11,40,993.09
2012,01,22,11,41,992.79
2012,01,22,11,42,992.72
2012,01,22,11,43,992.82
2012,01,22,11,44,992.82
2012,01,22,11,45,992.82
2012,01,22,11,46,992.82
2012,01,22,11,47,992.75
2012,01,22,11,48,992.56
2012,01,22,11,49,992.72
2012,01,22,11,50,992.69
2012,01,22,11,51,992.38
2012,01,22,11,52,992.35
2012,01,22,11,53,992.55
2012,01,22,11,54,992.55
2012,01,22,11,55,992.48
2012,01,22,11,56,992.35
2012,01,22,11,57,992.25
2012,01,22,11,58,992.31
2012,01,22,11,59,992.35
2012,01,22,12,00,992.55
2012,01,22,12,01,992.11
2012,01,22,12,02,992.18
2012,01,22,12,03,992.18
2012,01,22,12,04,992.14
2012,01,22,12,05,992.25
2012,01,22,12,06,992.18
2012,01,22,12,07,992.08
2012,01,22,12,08,991.91
2012,01,22,12,09,991.95
2012,01,22,12,10,992.04
2012,01,22,12,11,991.81
2012,01,22,12,12,991.98
2012,01,22,12,13,991.91
2012,01,22,12,14,991.91
2012,01,22,12,15,991.91
2012,01,22,12,16,991.91
2012,01,22,12,17,991.91
2012,01,22,12,18,991.84
2012,01,22,12,19,991.67
2012,01,22,12,20,991.60
2012,01,22,12,21,991.50
2012,01,22,12,22,991.40
2012,01,22,12,23,991.47
2012,01,22,12,24,991.43
2012,01,22,12,25,991.47
2012,01,22,12,26,991.43
2012,01,22,12,27,991.40
2012,01,22,12,28,991.40
2012,01,22,12,29,991.30
2012,01,22,12,30,991.23
2012,01,22,12,31,991.26
2012,01,22,12,32,991.23
2012,01,22,12,33,991.23
2012,01,22,12,34,991.46
2012,01,22,12,35,991.26
2012,01,22,12,36,991.13
2012,01,22,12,37,991.16
2012,01,22,12,38,991.13
2012,01,22,12,39,990.89
2012,01,22,12,40,990.93
2012,01,22,12,41,990.93
2012,01,22,12,42,990.79
2012,01,22,12,43,990.76
2012,01,22,12,44,990.76
2012,01,22,12,45,990.59
2012,01,22,12,46,990.65
2012,01,22,12,47,990.49
2012,01,22,12,48,990.55
2012,01,22,12,49,990.35
2012,01,22,12,50,990.38
2012,01,22,12,51,990.32
2012,01,22,12,52,990.32
2012,01,22,12,53,990.38
2012,01,22,12,54,990.38
2012,01,22,12,55,990.21
2012,01,22,12,56,990.28
2012,01,22,12,57,990.25
2012,01,22,12,58,990.45
2012,01,22,12,59,990.36
2012,01,22,13,00,990.08
2012,01,22,13,01,990.21
2012,01,22,13,02,990.15
2012,01,22,13,03,990.15
2012,01,22,13,04,990.04
2012,01,22,13,05,989.77
2012,01,22,13,06,989.88
2012,01,22,13,07,990.01
2012,01,22,13,08,989.71
2012,01,22,13,09,990.08
2012,01,22,13,10,989.91
2012,01,22,13,11,989.91
2012,01,22,13,12,990.01
2012,01,22,13,13,990.21
2012,01,22,13,14,989.91
2012,01,22,13,15,990.11
2012,01,22,13,16,990.08
2012,01,22,13,17,989.98
2012,01,22,13,18,990.04
2012,01,22,13,19,989.91
2012,01,22,13,20,989.54
2012,01,22,13,21,989.64
2012,01,22,13,22,989.71
2012,01,22,13,23,989.57
2012,01,22,13,24,989.47
2012,01,22,13,25,989.60
2012,01,22,13,26,989.54
2012,01,22,13,27,989.57
2012,01,22,13,28,989.67
2012,01,22,13,29,989.51
2012,01,22,13,30,989.48
2012,01,22,13,31,989.60
2012,01,22,13,32,989.47
2012,01,22,13,33,989.47
2012,01,22,13,34,989.37
2012,01,22,13,35,989.27
2012,01,22,13,36,989.16
2012,01,22,13,37,989.16
2012,01,22,13,38,989.20
2012,01,22,13,39,989.27
2012,01,22,13,40,989.39
2012,01,22,13,41,989.27
2012,01,22,13,42,989.23
2012,01,22,13,43,989.27
2012,01,22,13,44,989.40
2012,01,22,13,45,989.37
2012,01,22,13,46,989.47
2012,01,22,13,47,989.34
2012,01,22,13,48,989.37
2012,01,22,13,49,989.40
2012,01,22,13,50,989.33
2012,01,22,13,51,989.40
2012,01,22,13,52,989.40
2012,01,22,13,53,989.37
2012,01,22,13,54,989.33
2012,01,22,13,55,989.33
2012,01,22,13,56,989.30
2012,01,22,13,57,989.37
2012,01,22,13,58,989.50
2012,01,22,13,59,989.38
2012,01,22,14,00,989.47
2012,01,22,14,01,989.50
2012,01,22,14,02,989.50
2012,01,22,14,03,989.54
2012,01,22,14,04,989.57
2012,01,22,14,05,989.70
2012,01,22,14,06,989.57
2012,01,22,14,07,989.58
2012,01,22,14,08,989.71
2012,01,22,14,09,989.77
2012,01,22,14,10,989.71
2012,01,22,14,11,989.64
2012,01,22,14,12,989.67
2012,01,22,14,13,989.71
2012,01,22,14,14,989.67
2012,01,22,14,15,989.54
2012,01,22,14,16,989.60
2012,01,22,14,17,989.60
2012,01,22,14,18,989.54
2012,01,22,14,19,989.74
2012,01,22,14,20,989.71
2012,01,22,14,21,989.58
2012,01,22,14,22,989.74
2012,01,22,14,23,989.64
2012,01,22,14,24,989.77
2012,01,22,14,25,989.71
2012,01,22,14,26,989.71
2012,01,22,14,27,989.77
2012,01,22,14,28,989.77
2012,01,22,14,29,989.67
2012,01,22,14,30,989.74
2012,01,22,14,31,989.84
2012,01,22,14,32,989.84
2012,01,22,14,33,989.74
2012,01,22,14,34,989.88
2012,01,22,14,35,989.91
2012,01,22,14,36,989.84
2012,01,22,14,37,989.91
2012,01,22,14,38,989.85
2012,01,22,14,39,990.04
2012,01,22,14,40,990.04
2012,01,22,14,41,990.01
2012,01,22,14,42,990.08
2012,01,22,14,43,989.98
2012,01,22,14,44,989.94
2012,01,22,14,45,990.25
2012,01,22,14,46,990.05
2012,01,22,14,47,989.98
2012,01,22,14,48,990.11
2012,01,22,14,49,990.15
2012,01,22,14,50,990.21
2012,01,22,14,51,990.28
2012,01,22,14,52,990.35
2012,01,22,14,53,990.25
2012,01,22,14,54,990.32
2012,01,22,14,55,990.45
2012,01,22,14,56,990.42
2012,01,22,14,57,990.35
2012,01,22,14,58,990.58
2012,01,22,14,59,990.52
2012,01,22,15,00,990.55
2012,01,22,15,01,990.59
2012,01,22,15,02,990.65
2012,01,22,15,03,990.69
2012,01,22,15,04,990.76
2012,01,22,15,05,990.59
2012,01,22,15,06,990.72
2012,01,22,15,07,990.49
2012,01,22,15,08,990.62
2012,01,22,15,09,990.82
2012,01,22,15,10,990.76
2012,01,22,15,11,990.82
2012,01,22,15,12,990.76
2012,01,22,15,13,990.69
2012,01,22,15,14,990.86
2012,01,22,15,15,990.89
2012,01,22,15,16,990.99
2012,01,22,15,17,991.06
2012,01,22,15,18,990.93
2012,01,22,15,19,991.09
2012,01,22,15,20,991.09
2012,01,22,15,21,991.06
2012,01,22,15,22,991.09
2012,01,22,15,23,991.03
2012,01,22,15,24,991.20
2012,01,22,15,25,991.33
2012,01,22,15,26,991.30
2012,01,22,15,27,991.23
2012,01,22,15,28,991.26
2012,01,22,15,29,991.33
2012,01,22,15,30,991.43
2012,01,22,15,31,991.27
2012,01,22,15,32,991.23
2012,01,22,15,33,991.33
2012,01,22,15,34,991.53
2012,01,22,15,35,991.60
2012,01,22,15,36,991.60
2012,01,22,15,37,991.60
2012,01,22,15,38,991.57
2012,01,22,15,39,991.57
2012,01,22,15,40,991.66
2012,01,22,15,41,991.60
2012,01,22,15,42,991.77
2012,01,22,15,43,991.77
2012,01,22,15,44,991.94
2012,01,22,15,45,991.94
2012,01,22,15,46,992.01
2012,01,22,15,47,992.10
2012,01,22,15,48,992.18
2012,01,22,15,49,992.21
2012,01,22,15,50,992.21
2012,01,22,15,51,992.18
2012,01,22,15,52,992.31
2012,01,22,15,53,992.47
2012,01,22,15,54,992.26
2012,01,22,15,55,992.31
2012,01,22,15,56,992.35
2012,01,22,15,57,992.25
2012,01,22,15,58,992.25
2012,01,22,15,59,992.35
2012,01,22,16,00,992.42
2012,01,22,16,01,992.35
2012,01,22,16,02,992.42
2012,01,22,16,03,992.55
2012,01,22,16,04,992.65
2012,01,22,16,05,992.69
2012,01,22,16,06,992.79
2012,01,22,16,07,992.92
2012,01,22,16,08,992.96
2012,01,22,16,09,993.13
2012,01,22,16,10,993.30
2012,01,22,16,11,993.33
2012,01,22,16,12,993.33
2012,01,22,16,13,993.43
2012,01,22,16,14,993.50
2012,01,22,16,15,993.47
2012,01,22,16,16,993.50
2012,01,22,16,17,993.53
2012,01,22,16,18,993.60
2012,01,22,16,19,993.63